Weather History for KFLL - December, 2013

Change the Weather History Date:

Thursday, December 12, 2013

  Actual Average Record
Temperature  
Mean Temperature 74 °F 72 °F  
Max Temperature 80 °F 78 °F 87 °F (1986)
Min Temperature 67 °F 65 °F 30 °F (1957)
Degree Days  
Heating Degree Days 0 1  
Month to date heating degree days 0 7  
Since 1 July heating degree days 4 9  
Cooling Degree Days 9 8  
Month to date cooling degree days 112 97  
Year to date cooling degree days 4464 4610  
Growing Degree Days 24 (Base 50)    
Moisture  
Dew Point 66 °F    
Average Humidity 83    
Maximum Humidity 100    
Minimum Humidity 66    
Precipitation  
Precipitation 0.00 in 0.09 in 0.98 in (1942)
Month to date precipitation 0.78 1.03  
Year to date precipitation 76.04 60.75  
Snow  
Snow 0.00 in - - ()
Month to date snowfall 0.0  
Since 1 July snowfall 0.0  
Snow Depth 0.00 in    
Sea Level Pressure  
Sea Level Pressure 30.18 in    
Wind  
Wind Speed 8 mph (North)    
Max Wind Speed 18 mph    
Max Gust Speed 25 mph    
Visibility 10 miles    
Events      
T = Trace of Precipitation, MM = Missing Value Source: NWS Daily Summary

Daily Weather History Graph

Daily Weather History Graph

Search for Another Location

Airport or City:

Trip Planner

Search our weather history database for the weather conditions in past years. The results will help you decide how hot, cold, wet, or windy it might be!

Date:

Astronomy

Dec. 12, 2013 Rise Set
Actual Time 6:58 AM EST 5:30 PM EST
Civil Twilight 6:33 AM EST 5:55 PM EST
Nautical Twilight 6:04 AM EST 6:24 PM EST
Astronomical Twilight 5:36 AM EST 6:52 PM EST
Moon 2:19 PM EST (12/12) 2:39 AM EST (12/12)
Length of Visible Light 11h 22m
Length of Day
10h 32m
Waxing Gibbous, 80% of the Moon is Illuminated
Dec 12
Waxing Gibbous
Dec 17
Full
Dec 25
Last Quarter
Jan 1
New
Jan 7
First Quarter

Hourly Weather History & Observations

Time (EST) Temp. Dew Point Humidity Pressure Visibility Wind Dir Wind Speed Gust Speed Precip Events Conditions
12:53 AM 75.9 °F 69.1 °F 79% 30.15 in 10.0 mi East 6.9 mph - N/A   Partly Cloudy
1:53 AM 73.0 °F 69.1 °F 87% 30.15 in 10.0 mi Calm Calm - N/A   Scattered Clouds
2:53 AM 72.0 °F 70.0 °F 93% 30.15 in 10.0 mi NW 3.5 mph - N/A   Partly Cloudy
3:53 AM 71.1 °F 69.1 °F 93% 30.14 in 10.0 mi Calm Calm - N/A   Scattered Clouds
4:53 AM 71.1 °F 69.1 °F 93% 30.14 in 10.0 mi Calm Calm - N/A   Scattered Clouds
5:53 AM 70.0 °F 69.1 °F 97% 30.15 in 10.0 mi North 4.6 mph - N/A   Partly Cloudy
6:53 AM 70.0 °F 69.1 °F 97% 30.16 in 10.0 mi Calm Calm - N/A   Mostly Cloudy
7:53 AM 72.0 °F 70.0 °F 93% 30.18 in 10.0 mi North 6.9 mph - N/A   Mostly Cloudy
8:53 AM 75.0 °F 71.1 °F 87% 30.20 in 10.0 mi North 6.9 mph - N/A   Mostly Cloudy
9:53 AM 77.0 °F 71.1 °F 82% 30.22 in 10.0 mi NNW 12.7 mph - N/A   Mostly Cloudy
10:14 AM 73.4 °F 69.8 °F 88% 30.22 in 10.0 mi NNW 12.7 mph - N/A   Mostly Cloudy
10:30 AM 71.6 °F 69.8 °F 94% 30.22 in 10.0 mi NNW 10.4 mph - N/A   Mostly Cloudy
10:53 AM 72.0 °F 70.0 °F 93% 30.22 in 10.0 mi NNW 10.4 mph - N/A   Overcast
10:55 AM 71.6 °F 69.8 °F 94% 30.22 in 10.0 mi NNW 9.2 mph - N/A   Mostly Cloudy
11:22 AM 73.4 °F 69.8 °F 88% 30.21 in 10.0 mi NNW 5.8 mph - N/A   Mostly Cloudy
11:29 AM 75.2 °F 69.8 °F 83% 30.21 in 10.0 mi NNW 8.1 mph - N/A   Scattered Clouds
11:53 AM 77.0 °F 69.1 °F 76% 30.20 in 10.0 mi North 10.4 mph - N/A   Mostly Cloudy
12:53 PM 79.0 °F 66.9 °F 66% 30.17 in 10.0 mi NNW 9.2 mph - N/A   Mostly Cloudy
1:00 PM 78.8 °F 66.2 °F 65% 30.16 in 10.0 mi North 9.2 mph 16.1 mph N/A   Mostly Cloudy
1:53 PM 77.0 °F 68.0 °F 74% 30.14 in 10.0 mi NE 11.5 mph 18.4 mph N/A   Mostly Cloudy
2:53 PM 75.9 °F 66.0 °F 71% 30.13 in 10.0 mi NE 16.1 mph - N/A   Mostly Cloudy
3:53 PM 73.0 °F 64.9 °F 76% 30.14 in 10.0 mi North 11.5 mph - N/A   Mostly Cloudy
4:53 PM 71.1 °F 62.1 °F 73% 30.16 in 10.0 mi North 10.4 mph 19.6 mph N/A   Mostly Cloudy
5:53 PM 70.0 °F 60.1 °F 71% 30.16 in 10.0 mi North 9.2 mph - N/A   Scattered Clouds
6:53 PM 69.1 °F 59.0 °F 70% 30.17 in 10.0 mi NNW 11.5 mph 17.3 mph N/A   Scattered Clouds
7:53 PM 68.0 °F 57.9 °F 70% 30.18 in 10.0 mi North 9.2 mph - N/A   Mostly Cloudy
8:53 PM 68.0 °F 57.9 °F 70% 30.19 in 10.0 mi North 6.9 mph - N/A   Mostly Cloudy
9:53 PM 72.0 °F 60.1 °F 66% 30.19 in 10.0 mi NE 16.1 mph 25.3 mph N/A   Overcast
10:53 PM 71.1 °F 59.0 °F 66% 30.19 in 10.0 mi NE 13.8 mph 20.7 mph N/A   Partly Cloudy
11:53 PM 71.1 °F 59.0 °F 66% 30.18 in 10.0 mi NE 12.7 mph 23.0 mph N/A   Scattered Clouds